Tracking 22438 objects as of 24-Feb-2021
HD Live streaming from Space Station
objects crossing your sky now

CZ-4 DEB

Track CZ-4 DEB now!
10-day predictions


NORAD ID: 23258
Int'l Code: 1990-081CP
Perigee: 826.7 km
Apogee: 857.6 km
Inclination: 98.6 °
Period: 101.6 minutes
Semi major axis: 7213 km
RCS: 0.0136 m2 (small)
Launch date: September 3, 1990
Source: People's Republic of China (PRC)
Launch site: Taiyaun Space Center, China (TSC)

Note: This is SATELLITE DEBRIS
aabbcc
Your satellite tracking list
Your tracking list is empty




NASA's NSSDC Master Catalog

Two Line Element Set (TLE):
1 23258U 90081CP  21055.30699227  .00000129  00000-0  85156-4 0  9990
2 23258  98.6090  68.2172 0021356 227.9716 131.9642 14.17148922487072
Source of the keplerian elements: AFSPC